Dewpoint
51 45 31 25 18 14 2 2 2 9 12 15 18 16 18 20 24 29 43 51 48 56 66 68 69 69 70 71 71 71 72 71 71 70 71 70 71 71 71 71 71 71 71 70 69 69 69 68 70
38 33 23 19 16 3 4 2 4 5 15 22 23 18 19 19 25 41 46 51 51 55 63 66 68 69 70 71 71 71 71 72 71 70 70 70 71 69 71 71 71 71 70 70 69 69 69 69 69
46 30 17 14 10 5 -1 1 4 3 19 20 20 20 19 22 32 37 46 52 52 55 60 66 68 68 69 70 70 70 71 72 71 71 70 71 70 68 69 69 69 70 70 69 69 69 69 69 69
33 25 18 13 10 5 4 3 4 8 15 17 19 19 23 33 38 39 52 53 52 57 58 67 67 68 69 70 70 69 71 71 71 71 70 68 68 68 67 66 67 67 67 68 67 68 69 69 68
25 17 10 6 6 5 3 7 9 13 13 14 17 17 24 38 41 44 52 53 53 57 60 67 67 67 68 69 70 69 69 69 70 70 68 67 68 67 67 66 65 65 67 66 64 67 68 68 67
21 17 9 6 6 6 4 6 10 14 15 15 14 18 20 33 43 49 54 55 56 60 63 66 67 67 68 68 69 69 69 69 69 68 68 67 67 67 66 66 66 66 66 67 67 66 67 66 66
22 15 10 7 5 4 4 10 10 9 13 12 14 16 20 34 43 51 55 57 60 64 65 66 66 66 67 68 68 69 68 68 68 68 67 67 67 66 66 66 66 66 66 66 65 64 66 64 65
23 20 15 12 8 4 4 7 10 8 6 9 18 17 18 40 48 54 57 59 62 67 67 66 66 66 66 66 67 68 68 68 67 67 66 67 66 66 65 65 66 65 64 65 64 64 66 65 64
25 19 16 14 11 10 8 6 11 10 5 16 16 22 38 42 52 55 56 60 61 64 66 66 66 65 65 66 67 67 67 67 67 67 66 65 65 64 64 62 64 66 64 64 64 65 64 64 63
25 22 20 18 15 12 9 10 9 11 11 14 17 24 38 41 48 54 55 56 59 61 64 66 66 65 64 67 68 67 66 65 65 64 66 64 63 63 62 62 64 65 64 64 64 62 63 64 63
23 22 22 20 19 16 11 10 12 10 11 9 12 20 33 35 40 47 50 52 56 59 62 64 65 65 64 63 66 65 66 65 65 64 65 63 61 64 63 63 60 60 62 62 61 62 64 63 62
22 23 23 22 21 19 16 16 13 12 12 10 10 17 23 21 29 35 41 45 49 55 59 63 65 65 64 63 64 64 64 65 65 65 64 64 63 63 62 60 62 63 63 60 61 64 63 62 62
20 21 23 23 21 21 20 18 18 17 16 15 13 11 18 18 19 25 31 37 40 49 57 63 64 66 65 63 63 65 65 65 65 65 65 64 62 62 62 62 62 63 62 62 63 62 62 62 61
22 22 24 24 23 22 21 20 19 19 19 18 17 12 12 15 17 19 25 30 36 43 53 62 64 65 65 63 62 65 65 63 65 64 64 65 64 64 62 62 62 63 61 63 63 61 61 62 61
21 23 24 24 25 24 22 21 20 22 22 22 22 18 15 16 18 17 23 26 33 38 48 62 64 65 65 63 62 63 62 61 62 63 64 64 64 64 62 63 63 62 62 62 62 61 61 61 60
19 21 21 23 23 23 23 21 22 24 23 22 22 22 18 15 16 18 22 25 28 37 44 57 63 64 65 63 62 61 61 62 60 62 64 64 64 63 62 62 62 63 62 63 61 60 60 60 58
19 18 18 19 21 21 21 20 22 23 23 23 24 23 23 21 18 19 20 23 28 34 42 53 61 63 64 64 63 62 62 63 61 60 62 63 63 63 62 62 63 63 62 61 61 60 60 60 56
18 19 20 19 21 22 22 21 21 22 22 22 23 23 23 24 23 21 21 23 29 34 40 49 59 62 63 64 63 63 62 63 62 61 60 60 62 62 61 62 62 62 61 60 60 60 59 59 55
20 20 24 23 22 23 23 23 20 21 23 23 24 25 26 26 26 26 25 24 27 32 40 48 56 61 63 62 61 62 61 62 62 62 60 59 60 61 61 62 61 60 59 59 59 58 58 57 56
21 31 30 26 23 23 21 21 22 22 22 24 24 25 26 26 26 27 27 28 28 30 35 44 52 59 63 62 61 61 60 61 61 61 59 59 60 61 62 61 60 59 59 58 59 58 57 57 56
24 28 25 21 20 23 23 20 19 20 21 22 23 24 24 25 26 28 29 29 31 32 38 39 48 55 62 62 61 60 60 59 59 60 59 60 61 62 61 61 60 59 59 57 58 58 57 56 55
16 22 22 19 23 23 19 14 15 17 18 20 21 24 28 34 36 37 36 36 34 33 35 43 46 52 62 61 58 58 57 57 57 58 56 60 61 59 59 59 60 59 58 58 58 59 57 56 54
15 18 20 22 18 16 16 18 16 16 15 16 23 31 36 38 39 40 40 41 39 35 35 45 48 52 61 60 58 58 57 56 55 54 56 60 60 59 58 59 59 58 58 58 58 58 57 56 55
18 16 14 14 11 10 12 13 15 12 11 20 32 35 36 38 40 41 42 43 43 39 37 46 51 57 60 60 59 58 57 55 53 54 57 59 59 59 58 58 58 59 58 58 59 58 57 56 55
18 16 15 13 14 13 16 16 14 23 30 33 33 34 35 38 40 40 42 44 46 46 37 45 53 58 59 59 59 58 57 55 53 55 56 58 58 57 57 57 58 59 59 58 58 58 57 56 55
17 16 22 15 17 16 15 9 11 26 31 33 32 34 36 38 39 40 42 46 49 49 43 47 54 57 57 59 58 58 57 55 53 55 56 58 58 58 57 57 56 57 57 58 57 56 56 56 56
18 18 23 26 21 16 14 21 28 29 29 31 32 35 38 38 39 40 43 45 49 50 46 49 57 56 57 58 59 58 57 54 52 55 57 57 58 58 58 57 56 56 56 56 56 55 55 56 56
21 21 21 21 15 8 11 14 26 30 30 30 32 37 39 39 39 40 42 42 46 49 45 52 57 57 57 58 58 57 56 55 54 56 57 58 58 58 57 57 56 55 56 56 56 55 55 55 55
21 23 21 19 19 19 18 23 30 26 28 31 36 38 38 38 38 38 38 39 42 46 48 57 56 57 57 57 57 57 56 55 55 56 56 56 57 57 57 57 56 55 54 54 53 54 52 53 52
19 23 20 21 19 19 23 27 29 23 28 38 38 39 38 37 37 36 35 37 39 41 50 56 56 56 57 57 57 56 56 55 56 56 56 56 57 57 58 57 56 55 54 54 53 53 51 50 50
Wind_Speed
11 14 15 10 11 12 22 21 9 4 6 8 4 8 8 6 1 2 10 12 14 15 15 14 12 11 9 9 9 11 15 17 19 20 20 19 17 16 16 15 18 19 20 21 19 18 20 20 19
16 15 11 14 13 21 21 21 8 13 5 0 5 10 8 7 4 10 12 12 14 14 14 13 13 12 9 8 9 9 13 17 18 19 20 21 18 20 18 16 18 18 19 19 20 20 20 19 19
16 14 14 14 25 26 23 3 5 10 6 8 9 11 14 4 5 6 14 15 14 13 12 16 14 12 11 8 8 9 11 16 17 17 18 21 21 20 20 20 20 20 19 19 20 20 20 18 19
12 12 13 19 26 23 24 18 4 7 10 10 13 7 4 5 7 7 17 15 14 12 10 19 15 12 11 9 8 8 9 13 17 17 20 22 21 17 18 18 18 19 18 18 17 18 18 18 17
18 14 20 23 27 30 22 9 7 12 5 7 13 18 7 7 4 8 18 15 14 12 12 14 15 13 11 11 8 8 8 11 13 16 19 22 21 22 20 19 19 15 9 8 4 14 18 18 18
15 20 23 26 31 26 24 13 13 15 13 9 11 15 14 14 10 10 17 16 14 13 11 14 13 13 12 13 11 9 9 10 11 14 16 18 20 20 19 17 16 23 21 14 13 1 9 16 17
25 24 28 30 28 23 20 12 19 19 19 19 11 11 15 11 10 12 15 15 14 12 11 13 13 13 11 11 12 10 9 9 9 11 16 18 20 21 21 20 22 22 22 23 19 14 6 9 16
25 27 34 31 27 29 18 12 14 20 22 15 3 10 14 7 10 10 14 15 14 14 11 11 12 13 13 12 11 10 8 8 6 11 16 19 19 19 19 19 20 23 24 21 21 22 15 12 12
25 31 34 34 31 25 10 16 16 15 19 11 12 12 6 4 7 12 15 15 14 13 13 10 11 11 11 10 13 12 10 8 8 11 15 19 18 20 19 15 17 20 21 21 20 22 22 15 13
32 28 38 30 29 25 14 16 18 11 17 16 17 7 4 4 7 14 17 18 17 15 13 12 12 12 12 12 12 14 12 13 12 11 12 14 16 19 20 16 14 18 20 20 22 22 18 15 14
34 43 29 30 32 21 20 19 17 18 20 20 23 17 13 9 10 14 19 19 19 16 15 16 14 14 13 11 13 13 13 12 13 15 15 15 15 14 15 14 15 13 13 16 17 15 14 15 18
37 38 34 35 32 19 23 23 23 24 22 19 16 14 14 13 15 15 17 20 20 20 19 18 16 15 15 11 12 12 11 11 11 13 16 14 12 14 14 14 13 11 12 16 16 15 15 14 21
40 34 32 30 29 30 22 27 25 26 21 21 23 20 19 19 20 18 18 19 19 21 20 19 18 17 16 14 13 10 11 13 13 12 12 14 15 13 12 12 8 10 13 16 16 16 15 15 22
31 37 34 32 30 26 30 31 27 26 23 26 26 26 26 25 23 22 21 20 19 20 21 19 20 19 19 17 15 12 13 14 14 15 12 12 12 10 13 13 11 12 14 15 15 16 15 15 18
35 31 27 29 35 35 25 35 36 27 26 26 27 28 26 25 25 26 23 21 20 20 20 22 21 19 21 19 16 14 14 14 15 15 18 16 14 13 15 13 11 15 15 18 17 15 18 18 19
24 32 36 32 26 26 24 41 28 33 37 32 30 28 26 26 26 26 21 22 20 19 21 22 21 21 21 20 17 16 15 16 14 13 13 16 18 16 13 13 13 15 16 17 17 16 19 17 19
31 32 38 31 32 31 33 36 25 31 18 19 20 25 23 23 23 23 26 22 20 18 19 22 24 23 22 20 17 15 13 16 14 14 14 17 17 17 19 14 14 19 17 18 16 16 17 16 20
34 33 31 31 31 31 26 30 28 19 14 15 16 19 17 17 18 19 20 22 20 17 18 21 23 24 22 17 15 14 13 13 14 14 10 14 15 17 15 15 14 19 17 17 16 19 18 19 18
29 25 20 19 23 14 25 26 24 25 19 20 17 16 15 17 18 18 18 20 17 17 17 20 24 24 21 19 20 17 19 15 15 12 18 17 16 16 18 12 14 17 20 20 19 18 22 19 16
20 7 24 29 14 17 18 20 21 22 23 22 21 20 23 23 23 22 21 21 23 21 21 22 25 27 24 19 20 15 17 16 15 15 15 16 16 15 13 15 19 16 20 20 20 18 16 17 18
22 25 26 19 20 24 19 23 26 25 22 21 20 23 25 14 13 13 15 19 20 21 20 25 25 27 25 24 22 18 16 11 15 13 16 13 12 14 13 14 14 23 21 25 25 21 19 18 19
30 28 27 25 19 24 20 24 23 25 23 22 16 2 1 7 10 13 16 21 24 24 22 22 25 27 26 28 25 25 20 17 15 17 15 10 13 12 11 14 21 24 24 24 25 23 22 22 21
22 18 24 23 23 21 20 12 16 14 13 12 8 4 5 5 8 12 14 16 19 22 22 20 23 25 25 28 26 23 21 16 14 14 12 13 13 13 11 7 11 21 20 24 25 23 22 21 20
19 15 13 15 20 23 23 21 14 14 15 13 3 5 2 6 11 14 15 17 18 19 22 21 23 22 25 26 28 27 23 18 14 14 14 14 13 12 13 12 10 12 17 21 23 20 20 19 18
14 16 10 13 16 19 23 23 10 15 11 5 2 4 5 9 14 17 18 18 20 21 22 20 23 23 23 24 29 26 22 18 16 18 14 14 14 14 15 15 13 11 12 14 17 14 17 18 18
25 29 12 8 17 18 11 8 9 17 8 5 1 4 10 14 18 20 21 21 20 21 22 20 22 22 22 23 29 24 21 17 15 17 13 16 13 14 15 15 16 15 15 14 13 12 11 10 10
21 23 11 5 6 5 13 15 11 11 9 4 7 12 17 16 19 22 22 22 22 30 21 22 21 21 20 23 22 24 21 18 16 17 14 15 16 14 17 17 17 18 18 18 18 16 17 14 13
20 22 11 6 3 5 12 18 12 8 7 9 15 16 14 16 19 21 22 26 28 36 16 17 22 21 21 20 18 20 20 18 16 17 16 15 17 18 19 18 17 18 18 19 18 15 15 17 15
14 18 9 10 7 4 7 10 12 12 9 9 12 13 15 17 18 19 23 27 28 37 8 17 18 13 20 17 15 15 18 18 16 15 17 15 15 17 18 18 18 19 19 17 19 17 16 18 16
22 17 17 7 9 2 7 6 9 11 12 14 12 13 17 19 17 18 23 26 29 31 26 10 12 12 16 15 15 15 12 16 14 14 16 14 14 16 18 18 18 18 19 19 20 19 17 20 19
Wind_Direction
235 234 237 242 246 229 255 247 212 241 238 234 309 244 253 333 281 32 119 103 122 130 132 152 161 159 167 173 176 176 178 176 172 174 167 168 164 165 157 162 161 160 154 151 149 148 143 137 125
214 230 239 264 244 249 245 238 189 243 158 110 251 226 239 242 79 108 128 137 135 138 138 147 162 160 163 174 177 180 185 185 183 179 173 163 167 174 163 171 164 159 152 150 151 148 141 133 125
243 213 251 232 237 245 259 274 228 226 101 229 224 216 218 239 140 134 120 148 141 137 149 131 162 161 161 171 183 183 182 190 188 179 173 162 170 180 171 179 170 159 156 156 150 146 135 132 130
203 209 248 251 249 236 248 283 185 219 219 234 241 224 173 48 141 168 144 151 151 142 138 140 158 166 163 169 185 181 184 186 186 176 171 171 179 174 178 188 191 170 160 157 154 143 131 131 131
223 239 233 239 243 256 264 240 254 220 217 235 224 237 166 171 171 142 153 158 154 148 132 150 159 169 170 171 182 181 194 194 192 196 189 180 176 179 188 187 189 149 124 61 59 147 134 137 137
220 233 240 239 244 242 247 208 215 240 226 232 247 254 255 140 174 159 161 165 152 152 148 147 165 174 178 178 183 182 199 209 211 201 193 184 174 172 173 173 135 137 143 141 138 151 141 134 142
234 230 244 251 257 259 237 212 246 240 238 239 223 262 241 152 191 164 170 169 153 149 156 158 172 179 188 186 185 187 198 221 214 209 186 174 168 168 166 147 137 136 140 144 140 136 237 172 147
234 246 256 250 251 255 253 210 242 239 240 249 227 241 246 80 146 169 172 168 164 157 160 171 175 178 181 183 186 189 194 218 220 198 182 169 164 163 154 153 143 143 153 155 155 154 185 191 175
223 244 246 246 247 245 257 254 217 248 245 207 217 248 55 64 165 187 179 178 176 173 169 174 184 185 190 170 179 182 181 184 159 155 170 169 176 173 163 163 155 161 163 170 169 171 176 169 198
227 233 240 247 251 255 245 227 242 209 230 226 216 175 176 159 189 200 194 196 193 187 188 181 193 190 193 173 172 195 196 199 202 192 188 189 187 191 183 162 155 166 175 180 173 179 158 165 203
219 238 248 242 255 264 245 223 240 235 239 211 221 200 194 203 206 216 213 208 202 201 196 189 191 198 199 186 184 195 195 201 205 200 194 196 189 202 188 164 168 177 177 183 176 159 160 189 205
230 235 242 258 268 241 253 263 246 236 250 252 241 238 191 235 223 223 228 216 207 199 202 195 193 198 198 185 196 202 202 195 193 206 201 201 199 198 207 193 191 200 204 195 184 173 175 200 205
237 240 243 251 254 256 247 253 257 253 241 249 253 247 235 242 242 230 229 230 222 202 203 192 191 197 200 199 185 209 198 193 194 195 208 210 195 202 213 221 209 207 190 181 174 171 176 197 210
242 242 245 243 250 240 250 252 250 245 252 246 245 240 234 236 239 237 229 227 222 215 198 192 192 198 202 202 192 188 201 204 193 195 199 206 210 207 221 222 220 192 184 168 167 172 174 190 200
249 258 247 245 238 247 242 252 245 246 239 234 246 238 239 234 235 233 231 229 224 224 203 191 186 200 203 203 203 189 213 210 205 203 200 204 215 219 228 226 201 195 182 174 172 173 178 184 192
238 239 245 233 233 235 234 252 244 233 228 236 240 242 236 233 229 235 230 235 235 224 206 185 187 195 202 201 196 205 194 211 207 204 201 207 217 219 217 218 208 194 177 173 173 171 177 190 193
227 235 231 243 231 224 222 244 247 252 216 228 233 231 233 232 226 233 231 228 232 227 219 194 194 194 202 200 195 208 199 207 207 215 203 219 218 225 223 221 207 185 172 179 173 174 174 187 193
219 225 242 243 223 223 227 241 240 258 253 232 238 239 224 218 223 222 227 227 226 231 223 201 194 196 196 199 193 195 195 195 207 219 211 225 222 219 218 211 196 175 164 174 172 174 178 190 178
245 254 282 258 253 221 215 240 240 224 211 223 222 232 239 241 237 228 228 234 214 229 219 211 196 198 183 196 189 189 195 192 200 205 214 223 220 216 206 180 166 168 167 178 174 171 177 186 188
235 266 257 251 239 253 249 246 250 245 234 224 228 235 239 241 244 244 244 241 237 223 223 217 208 199 189 194 192 194 201 200 208 208 229 221 230 214 198 192 189 178 173 175 172 174 183 188 187
210 216 232 254 276 300 246 255 253 253 258 247 239 243 247 266 285 287 283 272 260 246 215 225 214 204 187 192 200 201 192 196 201 202 226 218 216 195 201 203 184 176 173 180 181 183 185 182 179
218 215 235 249 242 241 245 256 261 230 219 222 230 150 267 274 270 268 267 268 258 249 233 224 219 209 185 197 199 196 195 195 201 206 215 191 202 186 194 214 213 186 177 177 181 182 185 173 172
223 226 215 229 240 246 233 242 254 251 206 172 146 185 257 276 289 296 289 292 272 260 238 215 220 207 183 198 205 191 204 195 187 204 190 171 176 177 173 152 168 172 174 168 178 181 179 180 176
235 237 235 224 239 244 237 225 235 200 173 131 138 206 296 321 329 315 312 300 286 260 254 204 214 187 186 200 202 196 198 190 174 191 182 165 172 162 164 160 135 143 162 170 173 182 184 185 196
212 207 200 223 218 228 215 213 228 109 112 127 250 285 338 354 339 330 329 319 309 294 242 207 210 188 192 198 202 194 196 188 178 186 180 170 171 163 168 161 151 150 155 155 168 178 194 193 193
211 191 196 194 205 198 151 210 181 122 125 151 252 359 357 0 345 337 330 320 298 279 265 208 199 195 191 193 205 190 189 181 182 187 177 177 175 169 164 169 159 154 153 158 163 167 164 163 162
205 216 169 266 231 166 168 105 122 139 153 70 8 16 16 347 344 340 335 324 314 304 248 212 175 190 187 196 203 190 187 176 183 176 175 175 179 174 169 170 166 163 166 166 170 178 182 182 188
204 213 213 240 207 214 174 171 131 130 64 6 4 6 356 350 348 346 343 333 331 321 228 187 165 188 185 190 194 194 182 176 175 165 176 178 179 171 172 172 172 167 171 172 174 182 189 191 196
197 210 226 193 270 268 180 111 84 50 25 18 13 5 354 10 357 356 352 349 348 347 217 146 160 194 167 182 174 191 181 176 174 168 170 174 175 173 172 168 170 172 174 176 176 182 189 198 202
196 180 199 208 192 262 345 103 98 43 31 45 28 22 20 17 11 8 8 358 3 357 352 134 157 153 163 168 173 172 186 177 171 172 178 179 166 178 175 174 175 173 177 181 189 191 197 204 212